Regional Weather Roundup
Issued by NWS

Home | Current Version | Previous Version | Text Only | Print | Product List | Glossary On
Versions: 1 2 3 4 5 6 7 8 9 10 11 12 13 14 15 16 17 18 19 20 21 22 23 24 25 26 27 28 29 30 31 32 33 34 35 36 37 38 39 40 41 42 43 44 45 46 47 48 49 50
000
ASUS43 KLMK 220010
RWRKY
KENTUCKY REGIONAL WEATHER ROUNDUP
NATIONAL WEATHER SERVICE LOUISVILLE KY
800 PM EDT MON MAY 21 2018

NOTE "FAIR" INDICATES FEW OR NO CLOUDS BELOW 12,000 FEET
WITH NO SIGNIFICANT WEATHER AND/OR OBSTRUCTIONS TO VISIBILITY.

KYZ001>023-026-027-061>063-070>075-220100-
WESTERN AND SOUTH CENTRAL KENTUCKY

CITY           SKY/WX    TMP DP  RH WIND       PRES   REMARKS
PADUCAH        FAIR      80  68  66 CALM      29.99S
HENDERSON      NOT AVBL
OWENSBORO      FAIR      74  69  85 CALM      30.01F
HOPKINSVILLE   PTCLDY    78  70  76 SE10      30.03R
BOWLING GREEN  MOCLDY    72  70  93 NE5       30.04R
GLASGOW        FAIR      78  67  68 CALM      30.03R
$$

KYZ024-025-028>034-038-045-046-053-220100-
NORTH CENTRAL KENTUCKY

CITY           SKY/WX    TMP DP  RH WIND       PRES   REMARKS
LOUISVILLE/SDF MOCLDY    83  67  58 W12G22    30.00S
LOUISVILLE/LOU FAIR      82  69  64 SW12      30.01R
FORT KNOX      CLOUDY    78  68  72 W7        30.02S
$$

KYZ035>037-039>044-047>052-055>060-089>105-220100-
NORTHEAST KENTUCKY

CITY           SKY/WX    TMP DP  RH WIND       PRES   REMARKS
LEXINGTON      MOCLDY    73  67  81 S9        30.05R
COVINGTON      CLOUDY    80  66  62 W5        30.01S
FRANKFORT      MOCLDY    76  68  76 SE13G20   30.02R
$$

KYZ054-064>069-076>088-106>120-220100-
SOUTHEAST KENTUCKY

CITY           SKY/WX    TMP DP  RH WIND       PRES   REMARKS
JACKSON        FAIR      73  67  81 CALM      30.09S
LONDON         FAIR      76  66  71 SE7       30.07S
SOMERSET       MOCLDY    77  66  69 MISG      30.06S
MIDDLESBORO    FAIR      78  66  67 CALM      30.09R
MONTICELLO     CLOUDY    78  70  76 W7        30.07R
$$





USA.gov is the U.S. government's official web portal to all federal, state and local government web resources and services.